Location: Henau
(47.4548°N, 9.1164°E)
Time: 11:22:13
(UTC+00:00)

SJ-6B - Pass Details

Date: 03 March 2021
Orbit: 508 x 581 km, 97.6° (Epoch: 11 April)

Event Time Altitude Azimuth Distance (km) Brightness Sun altitude
Exits shadow 19:22:46 36° 189° (S) 913 3.8 -22.8°
Maximum altitude 19:24:16 66° 258° (WSW) 632 3.2 -23.0°
Drops below altitude 10° 19:28:19 10° 342° (NNW) 1,876 6.0 -23.7°
Sets 19:30:28 0° 345° (NNW) 2,767 6.8 -24.0°
